Theta_e
329 327 325 324 335 338 341 346 347 346 347 340 345 347 348 350 351 350 351 348 346 345 349 351 349 350 348 347 348 346 339 334 330 327 325 322 320 318
334 337 338 332 345 348 352 353 352 351 352 352 352 355 352 349 353 353 351 351 348 350 351 353 354 351 348 347 347 348 342 335 332 326 325 323 320 318
348 353 352 342 340 353 355 359 359 356 356 356 353 350 355 355 349 351 351 350 347 352 351 354 355 349 346 346 346 348 346 340 334 327 326 324 321 318
355 347 347 348 347 351 350 348 352 352 357 357 356 359 352 347 348 351 352 346 351 353 347 352 351 348 345 345 346 347 344 341 335 328 327 324 321 318
359 358 356 355 353 352 352 356 357 356 354 352 351 352 353 353 352 345 346 352 345 344 353 352 351 346 346 345 345 345 345 341 336 330 327 324 318 316
351 358 358 357 357 357 355 352 352 354 358 360 361 358 353 345 343 346 343 338 349 354 351 350 349 348 346 343 345 345 344 340 336 332 327 319 316 316
354 355 356 357 355 354 356 356 358 359 356 351 348 350 343 345 346 346 350 348 352 355 354 350 349 347 347 346 344 344 341 337 336 330 321 316 314 315
353 352 354 353 355 356 356 354 353 353 352 352 352 352 348 348 347 351 350 355 356 354 353 350 350 347 345 340 340 342 340 336 333 325 316 313 311 308
356 356 356 357 356 355 354 355 356 356 355 354 354 350 349 347 350 350 352 355 353 351 351 349 347 347 343 341 339 340 340 336 331 318 313 310 308 308
354 352 351 351 349 346 343 344 346 347 344 343 348 353 353 352 353 354 355 355 352 338 339 349 346 350 344 341 341 340 338 335 323 314 313 310 309 309
349 349 348 345 337 334 337 339 342 346 348 350 352 354 355 356 355 354 354 352 351 350 350 350 347 348 341 340 340 339 337 330 318 314 313 312 312 313
350 348 347 349 350 353 354 354 354 355 355 355 354 353 353 353 353 355 356 354 352 351 351 350 348 345 340 339 340 339 330 322 314 316 318 318 318 316
349 354 353 354 355 356 356 356 355 355 354 353 352 352 353 354 356 356 355 354 355 352 353 353 350 341 339 340 336 332 329 326 319 321 321 320 318 316
348 352 353 354 353 352 352 352 352 354 352 352 353 352 352 355 356 356 355 355 353 346 346 351 348 341 339 339 332 329 325 326 321 321 322 320 318 316
355 356 359 357 357 356 355 354 354 353 352 352 351 351 355 355 355 356 355 354 345 343 344 349 345 341 340 339 336 331 327 322 322 322 322 319 317 316
354 355 355 356 354 354 355 356 354 353 351 352 352 354 354 355 357 356 355 352 347 344 346 346 344 341 339 338 337 333 324 323 323 323 322 319 315 316
348 349 350 350 352 355 356 356 355 354 354 354 351 352 354 355 354 354 353 349 344 344 346 344 341 340 338 337 337 332 324 323 323 324 321 316 316 316
343 343 346 349 352 353 354 355 354 354 353 351 350 351 353 353 353 353 352 351 344 346 347 344 341 339 336 336 335 330 322 322 324 322 320 314 316 316
340 344 344 345 346 348 348 349 349 348 347 350 351 352 352 353 353 354 353 352 351 348 347 343 341 338 337 336 335 333 325 324 322 320 318 316 316 315
336 337 338 339 340 340 341 341 341 341 341 342 343 344 346 350 354 353 353 352 350 349 347 344 341 339 338 336 336 330 325 324 320 318 317 316 316 314
327 328 330 334 336 337 338 338 338 340 341 341 341 341 345 347 350 353 351 351 350 348 346 344 342 338 336 334 332 328 325 322 320 317 317 317 315 314
325 326 326 327 330 333 334 335 336 337 338 339 341 341 342 344 346 347 348 346 346 347 343 341 340 338 336 335 331 325 324 321 317 315 314 311 312 315
319 321 323 324 327 328 331 333 334 335 335 337 338 339 340 340 341 342 343 345 343 344 340 339 338 336 335 335 331 323 322 320 319 314 310 309 308 308
Wind_Speed
10 10 11 10 8 12 11 11 12 16 17 12 13 15 17 19 21 27 28 33 30 25 20 21 21 24 25 24 19 19 18 16 15 14 12 13 12 11
10 9 11 9 9 14 13 11 13 15 21 20 20 19 21 26 24 26 31 32 29 23 22 22 24 23 24 24 18 19 18 17 16 15 14 13 13 12
11 13 16 15 14 13 12 15 16 17 20 24 25 26 23 23 29 26 31 34 37 27 30 23 25 26 27 21 18 17 18 18 16 16 16 14 14 13
13 13 14 14 13 14 13 15 20 17 21 27 29 25 27 26 28 29 29 35 31 26 31 26 25 26 29 26 19 16 17 18 16 16 16 16 16 15
18 17 17 17 18 18 18 20 21 23 24 26 31 28 30 30 27 31 29 18 32 32 28 26 24 27 29 28 25 17 17 17 16 15 16 16 16 16
23 21 21 22 22 22 22 22 21 22 24 26 28 27 29 34 35 33 36 36 27 19 32 29 29 30 28 26 25 19 21 16 15 15 15 16 15 14
24 25 25 25 25 24 25 26 23 25 30 34 36 35 39 39 39 38 36 37 32 22 25 30 30 27 27 23 25 15 15 14 14 13 13 14 12 12
27 26 26 25 26 28 30 30 26 27 31 33 36 38 42 41 41 39 38 33 32 32 31 34 32 22 19 23 25 19 15 13 12 11 11 12 12 12
28 26 25 25 25 29 31 30 28 29 30 34 37 42 43 41 39 40 37 30 33 36 36 31 25 20 18 21 20 21 20 16 9 9 9 10 10 10
36 38 39 39 38 38 38 39 40 41 43 42 39 38 39 38 37 36 35 35 28 29 31 31 23 21 16 20 19 20 19 11 7 7 9 9 10 11
44 44 44 44 42 39 39 39 38 36 32 30 29 29 32 34 34 35 38 31 24 25 27 21 20 16 15 16 14 13 12 8 6 6 8 9 11 14
40 37 34 31 28 25 26 28 31 30 28 29 30 32 34 35 32 30 33 30 19 21 19 17 15 12 11 10 14 10 5 3 5 5 7 9 11 14
32 32 25 27 28 29 32 37 38 33 30 31 34 38 39 36 27 27 28 24 25 16 18 16 15 14 12 13 8 4 1 6 3 5 7 9 9 14
32 30 27 29 29 30 32 32 32 31 31 32 36 38 34 28 26 27 25 24 17 16 15 15 13 13 10 8 4 5 7 10 6 5 6 9 11 10
18 22 23 25 24 27 32 35 35 35 34 33 31 32 27 25 25 27 24 21 13 16 16 12 12 13 10 7 8 10 8 5 3 6 6 9 11 11
21 19 20 19 20 22 20 19 19 22 23 26 25 25 27 26 22 25 26 17 14 16 15 12 12 13 9 7 7 7 6 5 6 12 10 10 13 11
21 21 19 18 17 19 18 16 17 18 20 21 23 26 27 23 20 23 19 14 13 15 16 12 12 11 8 7 7 6 6 5 10 13 11 6 7 14
16 16 14 14 14 17 16 16 15 17 18 19 21 23 24 24 19 23 21 16 13 14 15 13 13 11 10 9 4 7 9 8 10 12 10 7 11 13
9 7 11 14 15 15 18 20 20 19 19 19 17 20 22 22 17 22 24 22 18 19 14 15 14 12 12 10 7 8 11 10 10 9 10 8 11 13
12 10 10 12 14 15 17 18 20 20 20 20 21 22 21 23 22 23 27 21 19 18 15 17 16 13 13 11 9 7 15 14 11 7 12 12 12 13
8 10 12 13 14 15 16 18 18 18 18 19 19 20 19 21 22 23 26 19 19 16 17 18 13 11 12 13 11 11 12 18 15 14 13 11 10 11
8 8 10 11 13 14 16 17 17 18 18 18 19 17 14 15 15 12 16 21 18 16 16 14 14 14 17 14 12 12 11 11 20 20 17 13 9 6
10 10 11 11 12 12 13 14 15 16 16 15 16 17 14 13 12 12 12 15 16 13 12 15 17 15 15 14 15 16 13 10 9 16 18 15 9 11
Wind_Direction
252 252 257 252 228 267 270 272 281 292 299 293 294 301 307 310 302 307 313 336 339 335 333 332 331 331 320 312 302 289 288 293 287 289 287 282 291 275
259 259 264 252 215 256 291 284 277 283 289 304 310 301 294 303 318 313 316 328 336 338 332 320 314 317 326 319 302 288 284 286 284 284 289 284 285 277
259 230 255 266 246 225 242 262 272 278 282 290 289 308 317 316 315 315 314 320 323 331 333 311 304 313 329 321 308 294 283 284 282 278 283 289 281 281
281 275 269 277 270 269 270 266 262 278 289 294 305 309 302 317 326 318 313 316 321 319 324 308 298 312 327 329 311 298 289 287 278 274 284 283 285 281
251 261 268 273 275 270 265 262 263 266 271 279 291 304 314 314 315 307 313 309 313 323 313 318 317 322 327 334 322 301 285 288 278 271 280 282 286 278
234 243 252 258 266 272 275 278 278 288 293 293 297 299 294 293 300 300 302 310 317 308 307 306 309 316 317 321 317 306 286 286 279 273 278 280 284 274
243 247 250 253 259 266 271 274 273 273 277 285 290 297 301 305 306 313 311 315 319 311 299 308 310 314 311 320 322 312 285 283 278 273 274 282 284 278
258 258 256 258 257 261 265 273 279 280 283 288 292 293 298 301 305 306 310 311 311 316 317 316 315 319 315 316 320 311 301 278 267 270 275 280 286 287
257 263 265 264 267 273 278 280 280 281 280 282 283 287 294 299 302 304 305 304 310 320 320 317 321 325 313 322 324 312 293 291 268 264 277 284 291 296
257 256 257 261 264 265 266 267 267 270 275 280 284 287 290 296 297 298 297 297 306 320 310 308 324 321 318 332 319 301 299 279 253 264 286 293 303 307
257 260 263 265 269 273 275 275 278 282 286 289 292 289 290 291 292 296 296 303 300 297 302 310 322 317 332 337 335 320 301 270 255 270 295 312 322 323
262 263 265 270 275 279 279 278 277 284 291 295 294 295 298 301 302 297 302 308 317 305 308 307 311 318 328 337 334 314 315 285 260 280 315 330 335 335
265 267 267 265 268 272 274 271 272 283 283 288 291 298 304 306 303 296 300 305 312 302 301 300 296 311 321 321 334 318 273 331 263 302 332 323 324 330
260 255 254 258 265 269 272 277 280 277 279 286 291 296 303 306 297 292 298 301 297 299 297 290 280 305 311 323 268 292 279 311 246 280 318 326 321 318
265 263 270 278 284 284 277 272 278 282 283 286 288 294 299 296 296 295 298 303 301 310 306 294 278 292 301 296 259 251 262 233 214 265 293 311 313 307
282 286 283 290 299 296 294 291 288 286 283 284 288 296 296 294 295 289 300 296 292 306 306 292 278 283 288 272 276 263 179 174 229 215 254 270 308 277
292 296 302 308 310 299 297 293 288 285 285 288 288 293 292 294 293 292 301 281 280 305 305 291 277 282 285 269 280 259 186 216 218 245 240 271 262 250
296 300 300 284 284 286 289 284 278 280 285 290 291 295 294 296 292 280 287 277 279 303 298 285 275 274 279 266 265 212 190 207 249 231 260 249 258 264
328 305 291 291 294 298 296 294 291 292 290 289 288 293 299 293 285 267 268 264 283 298 289 277 268 264 263 255 252 213 197 195 204 250 286 221 252 283
339 333 320 308 313 315 312 307 303 302 299 295 289 283 282 283 285 261 262 261 285 287 272 271 264 257 258 260 248 203 189 185 191 235 215 228 253 282
331 330 335 338 336 335 332 330 326 320 318 318 314 302 291 291 276 262 265 269 285 280 266 268 273 246 234 239 225 219 215 212 210 209 228 246 273 273
302 315 325 332 331 332 335 335 335 335 333 330 322 321 307 286 284 285 275 282 279 271 265 272 255 238 233 240 233 228 222 222 222 226 232 244 258 250
298 307 318 322 323 326 327 327 333 336 335 340 341 330 326 312 294 287 277 258 262 255 261 240 250 237 237 228 225 221 234 228 230 238 240 253 243 260